EZY902 EGAE-EGBB

Flight info

Callsign EZY902
Flight time 0h 47m
Altitude 25000
Route BELZU L10 DUFFY/N0401F270 DCT MAKUX
Aircraft A20N/M-SDE2E3FGHIRWXY/LB1

Departure

Time 2026-04-25 11:18
Airport City of Derry Airport (EGAE)

Arrival

Time 2026-04-25 12:06
Airport Birmingham Airport (EGBB)
Time Latitude Longitude Altitude Speed Heading
2026-04-25 10:57 55.04022 -7.15682 24 ft 0 kts 168°
2026-04-25 11:07 55.04031 -7.15685 24 ft 2 kts 168°
2026-04-25 11:08 55.04047 -7.15691 25 ft 2 kts 168°
2026-04-25 11:08 55.04063 -7.15698 24 ft 2 kts 168°
2026-04-25 11:08 55.04080 -7.15699 26 ft 2 kts 219°
2026-04-25 11:08 55.04086 -7.15681 26 ft 1 kts 257°
2026-04-25 11:09 55.04086 -7.15680 26 ft 0 kts 257°
2026-04-25 11:12 55.04085 -7.15683 26 ft 2 kts 257°
2026-04-25 11:12 55.04080 -7.15729 26 ft 5 kts 258°
2026-04-25 11:13 55.04073 -7.15789 24 ft 5 kts 260°
2026-04-25 11:13 55.04076 -7.15845 24 ft 4 kts 290°
2026-04-25 11:13 55.04109 -7.15881 22 ft 7 kts 344°
2026-04-25 11:13 55.04161 -7.15902 22 ft 8 kts 347°
2026-04-25 11:14 55.04215 -7.15923 22 ft 7 kts 347°
2026-04-25 11:14 55.04256 -7.15938 24 ft 6 kts 346°
2026-04-25 11:14 55.04292 -7.15994 28 ft 7 kts 292°
2026-04-25 11:14 55.04285 -7.16098 25 ft 12 kts 254°
2026-04-25 11:15 55.04262 -7.16235 25 ft 11 kts 253°
2026-04-25 11:15 55.04241 -7.16362 26 ft 11 kts 254°
2026-04-25 11:15 55.04222 -7.16477 27 ft 9 kts 253°
2026-04-25 11:15 55.04206 -7.16566 30 ft 10 kts 252°
2026-04-25 11:16 55.04136 -7.16943 35 ft 18 kts 251°
2026-04-25 11:16 55.04100 -7.17142 35 ft 17 kts 254°
2026-04-25 11:16 55.04066 -7.17345 35 ft 17 kts 252°
2026-04-25 11:17 55.04008 -7.17515 32 ft 15 kts 239°
2026-04-25 11:17 55.04000 -7.17646 30 ft 8 kts 338°
2026-04-25 11:17 55.04025 -7.17581 30 ft 7 kts 75°
2026-04-25 11:17 55.04099 -7.17154 35 ft 74 kts 73°
2026-04-25 11:18 55.04343 -7.15810 42 ft 154 kts 71°
2026-04-25 11:18 55.04650 -7.13923 721 ft 166 kts 73°
2026-04-25 11:18 55.04887 -7.11999 1613 ft 161 kts 90°
2026-04-25 11:18 55.04713 -7.10084 2438 ft 169 kts 111°
2026-04-25 11:19 55.04189 -7.08092 3010 ft 191 kts 122°
2026-04-25 11:19 55.03444 -7.06130 3755 ft 199 kts 128°
2026-04-25 11:19 55.02564 -7.04164 4459 ft 216 kts 130°
2026-04-25 11:19 55.01532 -7.01982 4849 ft 247 kts 131°
2026-04-25 11:20 55.00407 -6.99601 5591 ft 260 kts 130°
2026-04-25 11:20 54.99255 -6.97110 6554 ft 265 kts 130°
2026-04-25 11:20 54.98121 -6.94606 7449 ft 269 kts 129°
2026-04-25 11:20 54.96965 -6.92010 8378 ft 272 kts 129°
2026-04-25 11:21 54.95798 -6.89367 9308 ft 276 kts 129°
2026-04-25 11:21 54.94626 -6.86706 10212 ft 279 kts 129°
2026-04-25 11:21 54.93409 -6.83951 10735 ft 296 kts 129°
2026-04-25 11:21 54.92103 -6.81001 11056 ft 319 kts 129°
2026-04-25 11:22 54.90734 -6.77912 11581 ft 332 kts 129°
2026-04-25 11:22 54.89784 -6.75769 12081 ft 336 kts 129°
2026-04-25 11:22 54.87854 -6.71419 13200 ft 342 kts 129°
2026-04-25 11:22 54.86393 -6.68133 14055 ft 346 kts 129°
2026-04-25 11:23 54.84930 -6.64849 14804 ft 350 kts 129°
2026-04-25 11:23 54.83426 -6.61477 15579 ft 353 kts 129°
2026-04-25 11:23 54.81908 -6.58082 16346 ft 357 kts 129°
2026-04-25 11:23 54.80389 -6.54687 17091 ft 361 kts 129°
2026-04-25 11:24 54.78841 -6.51231 17841 ft 365 kts 129°
2026-04-25 11:24 54.77274 -6.47741 18542 ft 369 kts 129°
2026-04-25 11:24 54.75684 -6.44205 19145 ft 373 kts 129°
2026-04-25 11:24 54.74070 -6.40619 19750 ft 377 kts 129°
2026-04-25 11:25 54.72442 -6.37005 20353 ft 381 kts 129°
2026-04-25 11:25 54.70821 -6.33415 20946 ft 385 kts 129°
2026-04-25 11:25 54.69157 -6.29732 21540 ft 388 kts 129°
2026-04-25 11:25 54.67476 -6.26020 22136 ft 392 kts 129°
2026-04-25 11:26 54.65807 -6.22268 22697 ft 396 kts 127°
2026-04-25 11:26 54.64218 -6.18436 23263 ft 399 kts 125°
2026-04-25 11:26 54.62635 -6.14446 23799 ft 403 kts 124°
2026-04-25 11:26 54.61063 -6.10408 24246 ft 406 kts 124°
2026-04-25 11:27 54.59482 -6.06336 24663 ft 410 kts 124°
2026-04-25 11:27 54.57884 -6.02239 25052 ft 413 kts 124°
2026-04-25 11:27 54.56287 -5.98170 25190 ft 411 kts 125°
2026-04-25 11:27 54.55229 -5.95489 25215 ft 408 kts 125°
2026-04-25 11:28 54.53082 -5.90078 25212 ft 407 kts 125°
2026-04-25 11:28 54.51428 -5.86158 25210 ft 406 kts 130°
2026-04-25 11:28 54.49548 -5.82468 25211 ft 406 kts 133°
2026-04-25 11:28 54.47664 -5.78941 25212 ft 406 kts 133°
2026-04-25 11:29 54.45730 -5.75357 25209 ft 407 kts 133°
2026-04-25 11:29 54.43801 -5.71787 25208 ft 407 kts 133°
2026-04-25 11:29 54.41872 -5.68222 25207 ft 407 kts 133°
2026-04-25 11:29 54.39960 -5.64689 25210 ft 407 kts 133°
2026-04-25 11:30 54.38028 -5.61120 25208 ft 407 kts 133°
2026-04-25 11:30 54.36094 -5.57556 25211 ft 408 kts 133°
2026-04-25 11:30 54.34153 -5.53981 25209 ft 408 kts 133°
2026-04-25 11:30 54.32240 -5.50463 25214 ft 408 kts 133°
2026-04-25 11:31 54.30299 -5.46899 25213 ft 408 kts 133°
2026-04-25 11:31 54.28356 -5.43336 25213 ft 409 kts 133°
2026-04-25 11:31 54.26415 -5.39783 25215 ft 409 kts 133°
2026-04-25 11:31 54.24468 -5.36224 25213 ft 409 kts 134°
2026-04-25 11:32 54.22522 -5.32672 25205 ft 409 kts 134°
2026-04-25 11:32 54.20601 -5.29170 25214 ft 409 kts 134°
2026-04-25 11:32 54.18643 -5.25607 25204 ft 409 kts 134°
2026-04-25 11:32 54.16686 -5.22050 25214 ft 410 kts 134°
2026-04-25 11:33 54.14736 -5.18512 25207 ft 410 kts 134°
2026-04-25 11:33 54.12778 -5.14964 25213 ft 410 kts 134°
2026-04-25 11:33 54.10822 -5.11424 25216 ft 410 kts 134°
2026-04-25 11:33 54.08885 -5.07924 25215 ft 410 kts 134°
2026-04-25 11:34 54.06925 -5.04389 25215 ft 410 kts 134°
2026-04-25 11:34 54.04965 -5.00858 25204 ft 410 kts 134°
2026-04-25 11:34 54.03002 -4.97327 25205 ft 410 kts 134°
2026-04-25 11:34 54.01031 -4.93786 25216 ft 411 kts 134°
2026-04-25 11:35 53.99060 -4.90251 25214 ft 411 kts 134°
2026-04-25 11:35 53.97154 -4.86707 25202 ft 411 kts 128°
2026-04-25 11:35 53.95433 -4.82806 25211 ft 411 kts 127°
2026-04-25 11:35 53.93742 -4.78884 25206 ft 412 kts 127°
2026-04-25 11:36 53.92044 -4.74940 25214 ft 412 kts 127°
2026-04-25 11:36 53.90364 -4.71054 25215 ft 412 kts 127°
2026-04-25 11:36 53.88672 -4.67155 25205 ft 412 kts 127°
2026-04-25 11:36 53.86963 -4.63231 25216 ft 412 kts 127°
2026-04-25 11:37 53.85277 -4.59370 25203 ft 413 kts 127°
2026-04-25 11:37 53.83555 -4.55434 25212 ft 413 kts 127°
2026-04-25 11:37 53.81857 -4.51561 25209 ft 413 kts 127°
2026-04-25 11:37 53.80134 -4.47637 25206 ft 413 kts 127°
2026-04-25 11:38 53.78415 -4.43726 25214 ft 413 kts 127°
2026-04-25 11:38 53.76695 -4.39819 25205 ft 413 kts 127°
2026-04-25 11:38 53.74994 -4.35964 25213 ft 414 kts 127°
2026-04-25 11:38 53.73262 -4.32044 25207 ft 414 kts 127°
2026-04-25 11:39 53.71536 -4.28142 25210 ft 414 kts 127°
2026-04-25 11:39 53.69835 -4.24302 25209 ft 414 kts 127°
2026-04-25 11:39 53.68103 -4.20399 25216 ft 414 kts 127°
2026-04-25 11:39 53.66363 -4.16486 25209 ft 414 kts 127°
2026-04-25 11:40 53.64650 -4.12638 25216 ft 414 kts 127°
2026-04-25 11:40 53.62911 -4.08737 25211 ft 415 kts 128°
2026-04-25 11:40 53.61162 -4.04821 25207 ft 415 kts 128°
2026-04-25 11:40 53.59446 -4.00985 25218 ft 415 kts 128°
2026-04-25 11:41 53.57707 -3.97102 25219 ft 415 kts 128°
2026-04-25 11:41 53.55956 -3.93199 25213 ft 415 kts 128°
2026-04-25 11:41 53.54228 -3.89354 25209 ft 415 kts 128°
2026-04-25 11:41 53.52484 -3.85478 25209 ft 415 kts 128°
2026-04-25 11:42 53.50738 -3.81605 25215 ft 416 kts 128°
2026-04-25 11:42 53.48984 -3.77720 25207 ft 416 kts 128°
2026-04-25 11:42 53.47254 -3.73893 25219 ft 416 kts 128°
2026-04-25 11:42 53.45497 -3.70013 25211 ft 416 kts 128°
2026-04-25 11:43 53.43742 -3.66144 25218 ft 416 kts 128°
2026-04-25 11:43 53.42007 -3.62324 25222 ft 416 kts 129°
2026-04-25 11:43 53.40173 -3.58588 25215 ft 415 kts 131°
2026-04-25 11:43 53.38266 -3.54924 25215 ft 415 kts 132°
2026-04-25 11:44 53.36353 -3.51289 25202 ft 415 kts 132°
2026-04-25 11:44 53.34437 -3.47650 25013 ft 414 kts 132°
2026-04-25 11:44 53.32557 -3.44082 24796 ft 414 kts 132°
2026-04-25 11:44 53.30657 -3.40477 24570 ft 409 kts 132°
2026-04-25 11:45 53.28790 -3.36934 24223 ft 402 kts 132°
2026-04-25 11:45 53.26952 -3.33451 23866 ft 398 kts 132°
2026-04-25 11:45 53.25121 -3.29988 23428 ft 397 kts 133°
2026-04-25 11:45 53.23286 -3.26521 22997 ft 395 kts 133°
2026-04-25 11:46 53.21486 -3.23124 22569 ft 393 kts 133°
2026-04-25 11:46 53.19669 -3.19725 22173 ft 390 kts 132°
2026-04-25 11:46 53.18112 -3.16011 21811 ft 389 kts 123°
2026-04-25 11:46 53.16694 -3.12256 21454 ft 387 kts 123°
2026-04-25 11:47 53.15278 -3.08435 21091 ft 385 kts 123°
2026-04-25 11:47 53.13859 -3.04632 20732 ft 383 kts 123°
2026-04-25 11:47 53.12466 -3.00929 20390 ft 381 kts 123°
2026-04-25 11:47 53.11050 -2.97189 20233 ft 380 kts 123°
2026-04-25 11:48 53.09630 -2.93451 20211 ft 379 kts 123°
2026-04-25 11:48 53.08216 -2.89742 20209 ft 379 kts 124°
2026-04-25 11:48 53.06723 -2.86139 20054 ft 378 kts 127°
2026-04-25 11:48 53.05692 -2.83793 19876 ft 378 kts 127°
2026-04-25 11:49 53.04126 -2.80282 19607 ft 377 kts 128°
2026-04-25 11:49 53.02058 -2.75658 19262 ft 376 kts 128°
2026-04-25 11:49 53.00502 -2.72180 18993 ft 374 kts 127°
2026-04-25 11:49 52.99472 -2.69877 18774 ft 372 kts 127°
2026-04-25 11:50 52.97939 -2.66451 18420 ft 365 kts 127°
2026-04-25 11:50 52.96436 -2.63093 17994 ft 359 kts 127°
2026-04-25 11:50 52.94954 -2.59787 17579 ft 354 kts 127°
2026-04-25 11:50 52.93489 -2.56525 17155 ft 349 kts 127°
2026-04-25 11:51 52.92046 -2.53315 16739 ft 344 kts 127°
2026-04-25 11:51 52.90638 -2.50185 16332 ft 340 kts 127°
2026-04-25 11:51 52.89229 -2.47057 15937 ft 336 kts 127°
2026-04-25 11:51 52.87831 -2.43958 15538 ft 332 kts 127°
2026-04-25 11:52 52.86453 -2.40907 15141 ft 329 kts 127°
2026-04-25 11:52 52.85107 -2.37927 14772 ft 325 kts 127°
2026-04-25 11:52 52.83758 -2.34949 14382 ft 322 kts 127°
2026-04-25 11:52 52.82415 -2.31990 14017 ft 319 kts 128°
2026-04-25 11:53 52.81016 -2.29153 13589 ft 316 kts 131°
2026-04-25 11:53 52.79593 -2.26394 13160 ft 314 kts 131°
2026-04-25 11:53 52.78189 -2.23682 12755 ft 305 kts 131°
2026-04-25 11:53 52.76844 -2.21087 12391 ft 295 kts 131°
2026-04-25 11:54 52.75528 -2.18554 12084 ft 284 kts 131°
2026-04-25 11:54 52.74277 -2.16147 11786 ft 274 kts 131°
2026-04-25 11:54 52.71879 -2.11544 11196 ft 256 kts 131°
2026-04-25 11:55 52.70728 -2.09340 10910 ft 252 kts 131°
2026-04-25 11:55 52.69589 -2.07164 10681 ft 249 kts 131°
2026-04-25 11:55 52.68458 -2.05008 10390 ft 249 kts 131°
2026-04-25 11:55 52.67323 -2.02852 10130 ft 249 kts 131°
2026-04-25 11:56 52.66190 -2.00704 9869 ft 248 kts 131°
2026-04-25 11:56 52.65053 -1.98556 9600 ft 247 kts 131°
2026-04-25 11:56 52.63939 -1.96446 9339 ft 246 kts 131°
2026-04-25 11:56 52.62820 -1.94327 9075 ft 245 kts 131°
2026-04-25 11:57 52.61728 -1.92183 8813 ft 244 kts 124°
2026-04-25 11:57 52.61173 -1.89592 8547 ft 242 kts 93°
2026-04-25 11:57 52.61497 -1.86948 8308 ft 240 kts 62°
2026-04-25 11:57 52.62410 -1.84669 8069 ft 239 kts 52°
2026-04-25 11:58 52.63448 -1.82518 7780 ft 239 kts 50°
2026-04-25 11:58 52.64608 -1.80584 7448 ft 236 kts 31°
2026-04-25 11:58 52.66125 -1.79824 7125 ft 230 kts 359°
2026-04-25 11:58 52.67631 -1.80511 6812 ft 225 kts 327°
2026-04-25 11:59 52.68686 -1.82333 6500 ft 219 kts 304°
2026-04-25 11:59 52.69499 -1.84451 6119 ft 214 kts 300°
2026-04-25 11:59 52.69959 -1.86711 5746 ft 209 kts 270°
2026-04-25 12:00 52.68485 -1.90396 5008 ft 200 kts 207°
2026-04-25 12:00 52.67169 -1.91095 4629 ft 198 kts 192°
2026-04-25 12:00 52.64481 -1.91789 3893 ft 192 kts 184°
2026-04-25 12:01 52.63152 -1.91814 3508 ft 188 kts 180°
2026-04-25 12:01 52.61858 -1.91788 3142 ft 184 kts 180°
2026-04-25 12:01 52.60594 -1.91476 3002 ft 184 kts 162°
2026-04-25 12:01 52.59445 -1.90520 3017 ft 185 kts 148°
2026-04-25 12:02 52.57335 -1.88142 2971 ft 185 kts 146°
2026-04-25 12:02 52.56267 -1.86953 2769 ft 184 kts 146°
2026-04-25 12:02 52.55208 -1.85772 2503 ft 184 kts 145°
2026-04-25 12:03 52.54294 -1.84748 2263 ft 184 kts 146°
2026-04-25 12:03 52.53247 -1.83577 2024 ft 176 kts 146°
2026-04-25 12:03 52.52286 -1.82503 1779 ft 158 kts 146°
2026-04-25 12:03 52.51413 -1.81527 1594 ft 150 kts 146°
2026-04-25 12:04 52.50553 -1.80569 1387 ft 149 kts 146°
2026-04-25 12:04 52.49696 -1.79608 1175 ft 149 kts 145°
2026-04-25 12:04 52.49124 -1.78947 1033 ft 148 kts 145°
2026-04-25 12:04 52.48662 -1.78410 929 ft 148 kts 145°
2026-04-25 12:05 52.47772 -1.77450 713 ft 147 kts 147°
2026-04-25 12:05 52.46928 -1.76528 489 ft 145 kts 145°
2026-04-25 12:05 52.46099 -1.75605 324 ft 139 kts 146°
2026-04-25 12:05 52.45495 -1.74931 326 ft 77 kts 146°
2026-04-25 12:06 52.45204 -1.74606 331 ft 25 kts 145°
2026-04-25 12:06 52.45078 -1.74465 332 ft 21 kts 145°
2026-04-25 12:06 52.44958 -1.74323 327 ft 19 kts 131°
2026-04-25 12:06 52.44962 -1.74146 331 ft 16 kts 75°
2026-04-25 12:07 52.44988 -1.73978 332 ft 15 kts 76°
2026-04-25 12:07 52.45033 -1.73842 331 ft 13 kts 56°
2026-04-25 12:07 52.45082 -1.73741 330 ft 7 kts 31°
2026-04-25 12:07 52.45117 -1.73683 333 ft 7 kts 58°
2026-04-25 12:08 52.45152 -1.73647 333 ft 6 kts 347°
2026-04-25 12:08 52.45180 -1.73673 333 ft 3 kts 327°
2026-04-25 12:08 52.45197 -1.73691 334 ft 3 kts 326°
2026-04-25 12:08 52.45206 -1.73702 334 ft 0 kts 324°